Temperature
11 12 12 12 12 12 12 12 12 12 12 11 11 11 11 11 11 10 10 10 10 10 10 10 10 10 10 9 9 9 9 9 8 8 8 9 9 8 8 8 8 8 8
10 11 11 11 12 12 12 12 12 12 11 11 11 11 11 11 10 10 10 10 10 10 10 9 9 9 9 9 9 9 9 8 8 8 7 7 8 8 8 8 8 8 8
10 10 11 11 11 11 11 12 12 11 11 11 11 11 10 10 10 10 10 10 9 9 9 9 9 9 9 9 8 8 8 8 8 7 7 7 6 7 7 7 8 8 8
9 10 10 10 11 11 11 11 11 11 11 11 11 10 10 10 10 10 10 9 9 9 9 9 8 8 8 8 8 8 8 8 8 7 7 7 6 6 6 7 7 7 7
9 9 10 10 10 10 10 10 10 10 10 10 10 10 10 10 10 9 9 9 9 9 8 8 8 8 8 8 8 8 8 7 7 7 7 7 6 6 6 6 7 7 7
8 9 9 9 10 10 10 10 10 10 10 10 10 9 9 9 9 9 9 9 9 9 8 8 8 8 8 8 8 7 7 7 7 7 7 6 6 6 6 6 6 6 6
7 8 8 9 9 9 9 9 9 10 9 9 9 9 9 9 9 9 9 9 9 8 8 8 8 8 8 7 7 7 7 7 7 6 6 6 6 6 6 5 5 5 6
7 7 8 8 8 9 9 9 9 9 9 9 9 9 9 9 8 8 8 8 8 8 8 8 8 7 7 7 7 7 7 6 6 6 6 6 6 6 5 5 5 5 5
7 7 7 8 8 8 8 8 8 8 8 8 8 8 8 8 8 8 8 8 8 8 8 8 7 7 7 7 7 6 6 6 6 6 6 6 6 5 5 5 5 4 4
6 6 7 7 7 7 7 7 7 8 8 8 8 8 8 8 8 8 8 8 8 7 7 7 7 7 7 6 6 6 6 6 6 6 5 5 6 5 5 5 5 4 4
5 6 6 6 6 7 7 7 7 7 7 7 7 7 7 7 8 7 7 7 7 7 7 7 7 7 6 6 6 6 5 5 5 5 5 5 5 5 5 5 5 4 4
5 5 5 6 6 6 6 6 6 6 6 6 7 7 7 7 7 7 7 7 7 7 7 7 6 6 6 6 6 6 5 5 5 5 5 5 5 5 5 5 4 4 4
4 4 4 5 5 5 5 5 5 5 5 6 6 6 6 6 6 6 6 6 6 6 6 6 6 6 6 6 6 5 5 5 5 5 5 5 5 5 5 4 4 4 4
3 4 4 4 4 4 4 4 5 5 5 5 5 5 6 6 6 6 6 6 6 6 6 6 6 5 5 5 5 5 5 5 5 4 4 4 4 4 4 4 4 4 3
3 3 3 3 3 4 4 4 4 4 4 5 5 5 5 5 5 5 5 5 5 5 5 5 5 5 5 5 5 5 5 4 4 4 4 4 4 4 4 4 4 3 3
3 3 3 3 3 3 3 4 4 4 4 4 4 5 5 5 5 5 5 5 5 5 5 5 5 5 5 5 5 5 4 4 4 4 4 4 4 3 3 3 3 3 3
2 3 3 3 3 3 3 3 4 4 4 4 4 4 4 4 4 4 4 4 4 4 4 4 4 4 4 4 4 4 4 4 4 4 4 3 3 3 3 3 3 3 3
2 2 2 3 3 3 3 3 3 3 3 3 4 4 4 4 4 4 4 4 4 4 4 4 4 4 4 4 4 4 4 4 4 4 3 3 3 3 3 3 3 3 3
2 2 2 2 2 3 3 3 3 3 3 3 3 3 4 4 4 4 4 4 3 4 4 4 4 4 4 4 4 3 4 3 3 3 3 3 3 3 3 3 3 3 2
2 2 2 2 2 2 2 2 2 3 3 3 3 3 3 3 3 3 3 3 3 3 3 3 3 3 3 3 3 3 3 3 3 3 3 3 3 3 2 2 2 2 2
2 2 2 2 2 2 2 2 2 2 2 2 2 2 3 3 3 3 3 3 3 3 3 3 3 3 3 3 3 3 3 3 3 3 2 2 2 2 2 2 2 2 2
1 1 1 1 1 1 1 1 2 2 2 2 2 2 2 2 2 2 2 2 2 2 2 2 2 2 2 2 3 3 3 2 2 2 2 2 2 2 2 2 2 1 1
0 1 1 1 1 1 1 1 1 1 1 2 2 2 2 2 2 2 2 2 2 2 2 2 2 2 2 2 2 2 2 2 2 2 2 2 1 1 1 1 1 1 1
-0 -0 -0 0 0 0 0 0 1 1 1 1 1 1 1 1 1 1 2 2 1 1 1 1 1 2 2 2 2 2 2 2 2 2 1 1 1 1 1 1 1 1 0
-1 -1 -1 -0 -0 -0 -0 -0 -0 0 0 1 1 1 1 1 1 1 1 1 1 1 1 1 1 1 1 1 1 1 1 1 1 1 1 1 1 1 1 1 0 0 -0
-2 -1 -1 -1 -1 -1 -1 -1 -1 -0 -0 -0 0 0 0 0 0 0 0 0 0 0 0 1 1 1 1 1 1 1 1 1 1 1 1 1 1 0 0 -0 -0 -0 -0
Wind_Speed
4 2 2 3 3 3 4 5 5 4 4 3 3 2 2 1 1 1 1 1 1 1 1 1 1 1 1 1 1 1 1 1 1 2 3 3 3 2 2 2 2 3 4
1 1 2 2 3 4 4 4 5 5 5 4 3 2 2 2 2 1 1 1 1 1 1 1 1 1 1 1 1 0 0 1 1 1 1 3 3 3 3 2 3 3 3
4 3 2 2 2 3 5 5 5 5 4 3 3 2 2 2 1 0 1 1 1 2 2 2 1 1 2 2 2 2 1 1 1 0 1 0 2 4 3 2 3 3 3
3 3 3 2 3 4 3 4 4 4 4 4 5 5 3 2 3 2 2 2 1 1 1 1 2 2 2 2 2 2 2 2 2 1 1 2 2 2 3 3 3 3 4
3 3 3 3 2 3 2 3 3 3 3 4 5 5 3 2 1 1 1 1 1 1 1 1 1 2 2 2 2 2 2 2 2 2 1 1 1 2 2 5 5 4 3
1 1 0 1 0 1 2 2 3 3 3 4 4 4 4 2 2 1 2 1 1 1 1 1 1 2 2 2 3 2 2 2 2 2 2 2 2 2 2 4 5 6 5
2 1 1 1 1 1 2 2 2 2 3 3 3 3 3 3 4 3 3 2 1 2 3 2 2 2 2 3 2 2 3 3 3 3 3 2 2 2 2 3 4 4 4
1 1 1 1 1 1 2 2 2 1 2 3 3 2 2 2 2 2 2 3 3 3 2 2 2 2 2 2 2 2 2 2 3 3 3 2 2 2 2 2 2 4 4
0 0 0 1 1 1 2 2 2 1 1 2 2 2 2 2 2 1 1 2 2 2 2 2 2 2 2 1 1 1 2 2 2 3 2 2 2 2 2 2 2 2 4
1 1 1 1 1 1 1 1 1 2 1 1 2 1 1 1 1 1 1 1 2 1 1 1 1 1 1 1 1 1 1 1 2 2 2 2 2 2 2 2 2 2 3
1 1 2 2 2 2 2 2 1 1 1 0 1 1 1 1 1 1 1 1 1 1 1 1 1 1 1 1 1 1 1 1 2 2 2 3 2 2 2 1 1 1 1
2 2 2 3 3 3 2 1 1 1 1 1 0 1 1 1 0 0 1 1 1 1 1 1 1 1 1 1 1 2 1 1 2 2 2 2 2 2 1 1 1 2 2
3 3 3 3 3 3 2 1 1 1 1 1 1 1 1 0 1 1 1 1 1 1 1 1 1 1 1 1 2 1 1 2 2 2 2 2 2 2 1 1 1 2 2
2 3 3 3 3 3 3 2 2 1 1 1 1 1 0 1 1 1 1 1 1 1 1 1 1 2 1 1 1 1 1 1 2 2 2 2 2 2 2 1 2 1 1
3 2 2 3 3 3 3 3 3 2 1 0 0 1 1 1 1 0 1 1 0 1 1 1 1 1 1 1 1 1 1 1 1 1 1 1 2 2 1 1 1 1 1
2 2 2 3 3 3 3 3 3 3 1 1 1 1 1 1 1 1 0 0 0 1 1 1 1 1 2 2 1 1 1 1 1 1 2 2 1 2 2 2 2 2 1
3 3 3 2 2 3 3 3 3 3 2 1 1 1 1 1 1 1 1 0 1 0 1 1 1 2 2 2 1 1 1 0 1 1 1 2 2 2 1 2 3 3 4
3 3 3 3 3 3 3 3 3 2 2 2 2 2 1 1 1 1 1 1 1 1 1 1 1 1 2 2 1 1 1 0 0 1 0 1 1 2 1 2 2 3 3
3 3 3 3 3 2 2 2 2 2 2 2 2 2 1 1 1 1 1 1 1 1 1 1 1 1 2 1 0 2 0 0 1 1 1 1 0 2 3 3 2 3 4
2 2 2 3 3 3 2 2 2 2 2 3 2 2 2 1 1 2 2 1 1 1 1 1 1 1 2 2 1 2 1 0 1 1 1 2 2 3 3 2 2 2 2
2 2 1 2 2 2 2 2 2 3 3 3 2 2 2 1 1 1 1 1 0 0 1 1 1 1 2 2 1 2 1 1 1 1 1 1 3 4 4 3 2 2 3
3 2 1 2 3 2 2 2 3 4 3 2 2 2 2 2 1 1 1 1 1 1 1 1 2 2 2 2 1 2 2 2 2 0 1 1 4 4 5 4 5 6 5
2 2 2 2 3 2 1 2 4 3 2 2 2 2 3 2 2 1 1 1 1 1 1 1 1 2 2 2 3 2 2 3 2 1 3 4 4 4 3 5 7 6 3
3 2 2 2 3 3 2 2 3 2 1 1 1 2 2 3 3 2 1 1 1 1 1 1 1 1 2 2 2 1 1 2 2 2 3 5 6 5 5 5 4 3 2
3 2 1 2 3 3 3 3 2 2 1 1 1 1 2 2 2 2 2 1 1 0 0 1 1 0 1 1 2 2 1 1 2 3 3 3 3 4 4 3 3 3 3
3 2 2 2 2 2 2 2 2 1 1 1 1 1 1 1 2 2 2 4 3 4 3 3 2 1 1 2 3 3 4 5 6 5 3 3 2 2 2 2 2 2 2
Wind_Direction
238 191 179 168 162 160 167 174 165 163 155 148 151 154 183 199 203 221 202 184 184 174 147 159 168 167 199 221 233 260 324 322 328 346 327 316 299 298 289 293 299 300 301
242 199 177 160 168 178 177 174 177 174 174 176 172 169 168 191 203 221 237 210 205 194 184 177 206 202 204 213 222 203 303 313 0 35 345 333 331 328 308 300 295 302 306
213 212 197 188 179 184 187 186 185 177 174 161 137 99 79 59 61 263 269 275 251 222 210 197 196 210 198 216 229 214 207 255 297 170 154 286 280 311 306 303 300 300 301
222 213 200 192 198 206 193 185 181 172 165 156 159 157 167 186 206 208 229 258 255 236 221 208 206 209 217 224 233 229 222 209 253 289 242 231 236 271 308 312 312 305 302
210 207 205 203 207 196 179 182 169 163 157 161 167 168 175 189 186 181 211 236 253 250 242 227 217 217 224 233 234 239 223 213 224 235 252 269 275 244 259 298 317 326 315
197 181 141 112 132 134 136 134 145 161 159 158 161 169 173 168 162 195 207 232 261 249 252 248 235 228 226 232 234 234 228 232 233 240 232 228 235 248 249 275 304 313 316
162 138 99 70 60 108 133 133 136 153 162 159 167 179 178 179 188 201 207 216 234 250 249 249 241 244 241 235 226 230 236 240 239 241 244 241 247 243 253 274 293 305 313
160 179 181 164 179 173 157 146 153 150 167 171 179 177 170 182 207 210 211 214 227 236 236 236 238 243 244 246 226 235 245 249 247 254 253 256 261 256 251 254 282 308 319
185 169 65 88 129 163 172 173 166 157 174 183 177 170 172 186 209 232 226 226 245 255 237 228 231 242 243 239 237 244 260 263 256 259 260 260 263 254 253 253 251 261 301
41 49 44 54 63 102 114 120 141 166 168 180 185 179 193 208 209 202 246 252 261 254 236 229 226 232 237 233 226 248 272 266 272 264 262 267 265 262 254 251 256 246 260
16 37 33 30 51 62 72 82 77 67 64 97 174 158 183 191 173 199 259 274 269 244 221 223 219 212 226 251 242 259 271 264 283 286 273 280 277 269 269 261 257 258 258
20 47 57 51 45 47 45 48 49 43 22 5 96 160 148 124 126 265 284 288 274 250 232 216 218 227 229 233 231 253 269 263 270 278 280 283 288 287 283 269 267 268 265
36 46 53 49 36 30 20 8 15 11 11 27 41 71 96 131 246 271 286 287 275 268 254 212 217 244 243 235 238 235 249 257 261 264 264 274 273 290 303 294 275 278 290
44 45 39 30 23 19 10 359 340 349 17 37 48 21 304 246 254 268 278 267 253 256 253 250 239 241 242 235 239 226 231 256 260 258 252 260 258 265 273 280 272 281 311
20 22 22 17 11 7 359 355 348 344 354 37 21 306 318 304 294 308 299 285 278 288 270 253 274 267 245 241 242 216 221 237 260 283 271 263 290 306 311 309 301 327 320
342 346 1 8 357 349 341 342 339 333 339 331 302 319 332 342 333 305 326 341 312 312 326 258 250 266 269 279 262 171 202 228 243 284 304 305 297 311 325 336 353 355 324
326 323 323 315 316 316 323 324 319 333 352 339 324 325 320 324 334 356 24 329 290 283 306 292 264 265 270 273 263 190 168 193 250 263 308 341 329 337 338 0 13 7 4
308 310 318 321 322 326 334 339 343 357 357 351 337 326 325 330 350 18 355 310 297 258 261 290 290 276 279 272 262 123 102 75 301 275 268 312 325 332 25 47 30 14 9
274 286 305 315 319 325 334 345 355 359 353 340 323 311 305 303 311 302 290 293 293 274 263 265 305 299 301 302 307 89 160 27 345 351 2 338 320 354 47 70 52 32 21
317 321 334 343 337 329 342 348 338 337 321 311 312 312 298 269 266 272 279 288 272 263 273 310 309 299 300 330 26 85 135 66 9 13 358 357 15 19 45 78 83 52 18
327 341 353 342 326 333 346 336 331 311 309 317 327 340 331 299 278 296 301 288 311 39 33 19 359 334 321 337 34 78 103 135 73 27 357 350 19 40 48 57 69 62 65
336 343 349 342 336 339 342 326 314 314 324 330 346 355 356 347 356 23 4 24 79 77 38 31 18 2 341 350 9 60 80 90 113 87 6 28 45 55 60 67 59 65 66
329 334 340 340 338 336 325 306 313 326 340 1 6 7 6 9 17 51 53 42 56 70 36 33 17 357 354 354 20 54 75 80 93 89 69 63 63 66 67 64 66 68 64
328 330 345 340 326 325 325 319 325 338 1 11 4 14 24 22 24 25 39 57 56 57 39 32 358 343 359 9 18 40 69 76 80 77 68 67 69 70 61 60 62 54 58
327 323 308 302 305 317 330 341 344 351 3 13 12 14 28 29 29 29 28 34 16 68 184 234 230 263 336 353 42 78 81 97 97 89 72 58 59 54 48 49 51 46 44
320 319 317 315 315 323 332 341 340 338 10 23 18 19 31 29 33 34 30 34 38 39 37 38 56 34 34 53 78 90 87 89 96 89 83 72 67 65 54 47 38 37 38
Height
1474 1476 1477 1479 1481 1483 1485 1487 1489 1491 1493 1494 1496 1497 1498 1499 1500 1500 1501 1501 1501 1501 1501 1501 1501 1501 1501 1500 1500 1499 1499 1498 1497 1496 1494 1493 1492 1492 1491 1490 1489 1488 1487
1470 1472 1474 1476 1478 1480 1482 1484 1486 1488 1489 1491 1493 1494 1496 1497 1497 1498 1498 1499 1499 1499 1499 1499 1499 1499 1498 1498 1498 1497 1496 1496 1495 1494 1492 1491 1490 1489 1489 1488 1486 1485 1484
1467 1469 1471 1473 1474 1476 1478 1480 1482 1484 1486 1488 1490 1492 1493 1494 1494 1495 1495 1496 1496 1497 1497 1497 1496 1496 1496 1496 1495 1495 1494 1494 1494 1493 1493 1491 1488 1486 1485 1484 1484 1483 1481
1464 1466 1468 1469 1471 1474 1476 1478 1479 1481 1483 1485 1486 1488 1488 1489 1490 1491 1492 1493 1494 1494 1494 1494 1494 1494 1494 1493 1493 1493 1492 1492 1491 1491 1491 1491 1489 1487 1483 1482 1481 1480 1478
1462 1463 1465 1467 1469 1471 1473 1474 1476 1478 1480 1481 1483 1484 1486 1487 1488 1489 1490 1491 1491 1491 1492 1492 1492 1491 1491 1491 1491 1490 1490 1490 1489 1489 1488 1488 1487 1486 1484 1480 1478 1477 1476
1460 1461 1463 1465 1466 1468 1470 1471 1473 1474 1476 1478 1480 1481 1483 1484 1485 1486 1487 1487 1488 1488 1489 1489 1489 1489 1489 1488 1488 1488 1488 1487 1487 1486 1486 1485 1485 1483 1482 1479 1476 1474 1473
1458 1460 1461 1462 1464 1465 1467 1468 1470 1471 1473 1475 1477 1478 1480 1481 1482 1483 1484 1484 1485 1485 1486 1486 1486 1486 1486 1486 1486 1485 1485 1484 1484 1484 1483 1483 1482 1481 1480 1478 1475 1472 1470
1457 1458 1460 1461 1462 1463 1464 1466 1467 1469 1470 1472 1474 1476 1477 1479 1480 1481 1481 1482 1482 1483 1483 1483 1483 1483 1483 1483 1483 1482 1482 1481 1481 1481 1480 1480 1479 1479 1478 1476 1474 1470 1468
1456 1457 1458 1459 1460 1461 1462 1464 1465 1466 1468 1470 1471 1473 1474 1476 1477 1478 1479 1479 1480 1480 1480 1480 1480 1480 1480 1480 1479 1479 1479 1478 1478 1478 1477 1477 1476 1476 1475 1474 1473 1472 1467
1456 1456 1457 1458 1459 1460 1461 1462 1464 1465 1466 1467 1469 1470 1471 1473 1474 1475 1475 1476 1477 1477 1477 1477 1477 1477 1477 1477 1477 1476 1476 1475 1475 1474 1474 1473 1473 1472 1472 1471 1470 1469 1468
1456 1456 1457 1458 1459 1459 1460 1461 1462 1463 1464 1465 1466 1468 1469 1470 1471 1472 1472 1473 1474 1474 1474 1474 1474 1474 1474 1474 1474 1473 1473 1472 1472 1472 1471 1470 1470 1469 1469 1468 1467 1466 1465
1456 1457 1457 1457 1458 1459 1459 1460 1461 1461 1462 1463 1464 1465 1466 1467 1468 1469 1469 1470 1470 1471 1471 1471 1471 1471 1471 1471 1471 1470 1470 1470 1469 1468 1468 1467 1467 1466 1466 1465 1464 1463 1463
1457 1456 1456 1457 1457 1458 1458 1459 1460 1460 1461 1462 1462 1463 1464 1465 1466 1466 1467 1467 1468 1468 1468 1468 1468 1468 1469 1468 1468 1468 1467 1467 1466 1466 1465 1464 1464 1463 1463 1462 1461 1461 1460
1457 1456 1456 1457 1457 1458 1458 1458 1459 1459 1460 1460 1461 1462 1462 1463 1463 1464 1464 1464 1465 1465 1465 1465 1466 1466 1466 1466 1466 1465 1465 1464 1464 1463 1463 1462 1461 1461 1461 1460 1459 1458 1457
1456 1456 1456 1456 1456 1457 1457 1457 1457 1458 1458 1459 1459 1460 1460 1461 1461 1462 1462 1462 1462 1462 1462 1463 1463 1463 1463 1463 1463 1463 1462 1462 1461 1461 1460 1460 1459 1459 1459 1458 1457 1456 1455
1456 1456 1456 1456 1456 1456 1456 1456 1456 1456 1457 1457 1458 1458 1458 1459 1459 1459 1459 1459 1460 1460 1460 1460 1460 1460 1460 1461 1461 1461 1460 1459 1459 1458 1458 1457 1457 1457 1457 1456 1455 1454 1453
1456 1456 1455 1455 1455 1455 1455 1455 1455 1455 1455 1455 1456 1456 1456 1457 1457 1457 1457 1457 1457 1457 1457 1457 1457 1457 1458 1458 1459 1459 1458 1457 1457 1456 1456 1455 1455 1455 1454 1454 1453 1452 1451
1455 1455 1454 1454 1454 1454 1454 1454 1454 1453 1453 1453 1454 1454 1454 1455 1455 1455 1455 1455 1455 1455 1455 1455 1455 1455 1455 1456 1456 1456 1456 1455 1455 1454 1454 1453 1453 1452 1452 1452 1451 1450 1449
1454 1454 1453 1453 1453 1452 1452 1452 1452 1452 1452 1452 1452 1452 1452 1452 1453 1453 1453 1453 1453 1452 1452 1452 1452 1452 1453 1453 1454 1454 1454 1453 1453 1453 1452 1452 1451 1451 1451 1450 1449 1449 1448
1452 1451 1451 1451 1451 1450 1451 1450 1450 1450 1450 1450 1450 1450 1450 1450 1451 1451 1451 1451 1451 1450 1450 1450 1450 1450 1451 1451 1452 1452 1452 1451 1451 1451 1451 1450 1450 1450 1450 1449 1448 1447 1447
1450 1449 1449 1448 1448 1448 1448 1448 1448 1448 1448 1448 1448 1448 1448 1448 1449 1449 1449 1449 1449 1449 1448 1448 1448 1449 1449 1449 1450 1450 1450 1450 1449 1449 1449 1449 1449 1449 1448 1448 1448 1447 1447
1447 1447 1446 1446 1446 1446 1446 1446 1446 1446 1446 1446 1446 1446 1446 1446 1447 1447 1447 1447 1447 1447 1447 1446 1446 1447 1447 1447 1448 1448 1448 1448 1448 1448 1448 1448 1448 1448 1447 1447 1447 1447 1446
1445 1445 1444 1444 1444 1444 1444 1444 1444 1444 1444 1444 1444 1444 1444 1445 1445 1445 1445 1445 1445 1445 1445 1445 1445 1445 1445 1446 1446 1446 1446 1446 1446 1446 1447 1447 1447 1446 1446 1446 1446 1446 1445
1443 1442 1442 1441 1441 1442 1442 1442 1442 1442 1442 1442 1442 1442 1442 1443 1443 1443 1443 1443 1443 1443 1443 1443 1443 1444 1444 1444 1444 1444 1444 1444 1444 1445 1445 1445 1446 1445 1445 1445 1445 1444 1444
1441 1441 1440 1439 1439 1439 1439 1440 1440 1440 1440 1440 1440 1440 1440 1441 1441 1441 1442 1442 1442 1442 1442 1442 1442 1442 1442 1443 1443 1443 1443 1443 1443 1443 1443 1444 1444 1444 1444 1444 1444 1444 1443
1439 1439 1438 1438 1437 1437 1437 1437 1438 1438 1438 1438 1438 1438 1439 1439 1439 1439 1439 1440 1440 1440 1441 1441 1441 1441 1441 1442 1441 1442 1442 1442 1442 1442 1442 1442 1442 1442 1443 1443 1442 1443 1442